Home   Weather   Fort Liard   Past weeks

Flag for Canada Past Weather in Fort Liard, Northwest Territories, Canada — Yesterday and Last 2 Weeks

Now
-2 °F

Frigid.


Feels Like: -2 °F
Forecast: 0 / 5 °F
Wind: 1 mph from South

Location: Lindberg Landing

Current Time: Jan 19, 2017 at 10:31:53 am

Latest Report: Jan 19, 2017 at 9:00 am


Visibility: N/A

Pressure: 29.40 "Hg

Humidity: 81%

Dew Point: -7 °F

Location of Fort LiardLocation

Past Weather in Fort Liard — Graph

°F

Fort Liard Temperature Yesterday

Maximum temperature yesterday: 0 °F (at 2:00 pm)
Minimum temperature yesterday: -7 °F (at 9:00 am)
Average temperature yesterday: -4 °F

High & Low Weather Summary for the Past Weeks

 TemperatureHumidityPressure
High25 °F (Jan 4, 11:00 pm)100% (Jan 4, 4:00 pm)30.91 "Hg (Jan 4, 4:00 pm)
Low-29 °F (Jan 7, 10:00 pm)55% (Jan 11, 1:00 pm)29.02 "Hg (Jan 16, 5:00 pm)
Average-2 °F80%29.90 "Hg
* Reported Jan 4 9:00 am — Jan 19 9:00 am, Fort Liard, Weather by CustomWeather, © 2017

Note: Actual official high and low records may vary slightly from our data, if they occured in-between our weather recording intervals... More about our weather records

Advertising

Fort Liard Weather History for the Previous 24 Hours

Scroll right to see more
 ConditionsComfort  
Time TempWeatherWind HumidityBarometerVisibility
9:00 am
Thu, Jan 19
-2 °FFrigid.1 mph81%29.40 "HgN/A
8:00 am-3 °FFrigid.No wind83%29.41 "HgN/A
7:00 am-1 °FFrigid.No wind76%29.43 "HgN/A
6:00 am-4 °FFrigid.No wind83%29.44 "HgN/A
5:00 am-3 °FFrigid.No wind78%29.45 "HgN/A
4:00 am-3 °FFrigid.1 mph78%29.46 "HgN/A
3:00 am-3 °FFrigid.1 mph81%29.47 "HgN/A
2:00 am-3 °FFrigid.1 mph79%29.48 "HgN/A
1:00 am-3 °FFrigid.1 mph82%29.49 "HgN/A
12:00 am-2 °FFrigid.No wind80%29.50 "HgN/A
11:00 pm
Wed, Jan 18
-3 °FFrigid.2 mph82%29.50 "HgN/A
10:00 pm-2 °FFrigid.3 mph78%29.50 "HgN/A
9:00 pm-2 °FFrigid.2 mph82%29.51 "HgN/A
8:00 pm-2 °FFrigid.5 mph76%29.51 "HgN/A
7:00 pm-2 °FFrigid.3 mph78%29.50 "HgN/A
6:00 pm-2 °FFrigid.1 mph81%29.51 "HgN/A
5:00 pm-1 °FFrigid.2 mph73%29.50 "HgN/A
4:00 pm-1 °FFrigid.3 mph73%29.49 "HgN/A
3:00 pm-1 °FFrigid.2 mph73%29.49 "HgN/A
2:00 pm0 °FFrigid.2 mph68%29.49 "HgN/A
1:00 pm-3 °FFrigid.2 mph74%29.48 "HgN/A
12:00 pm-3 °FFrigid.2 mphN/A29.49 "HgN/A
11:00 am-5 °FFrigid.No wind76%29.49 "HgN/A
10:00 am-6 °FFrigid.1 mph78%29.47 "HgN/A
Weather by CustomWeather, © 2017

See weather overviewHow to use our weather pages